Погода в Задне-Пилеве

Россия / Рязанская область     55°04′03″N   40°11′11″E
темп.,
°C
ветер,
м/с
пор.,
м/с
влажн.,
%
обл.,
%
осадки,
мм/ч
давл.,
гПа
погр.,
м
19 сентября, вс
вс1900:00+4в3975100 0.0 1025253
03:00+4в31075100 0.0 1024343
06:00+4в41075100 0.0 1024358
09:00+6в4963100 0.0 1024515
12:00+9в5850100 0.0 10231025
15:00+11в5843100 0.0 10211259
18:00+10в51046100 0.0 10201026
21:00+8в51160100 0.1 1020976
20 сентября, пн
пн2000:00+6в61488100 1.8 1019721
03:00+6в71694100 7.6 1018763
06:00+6в71695100 10.3 1017912
09:00+6в71594100 16.7 1017990
12:00+6в71594100 1.6 10181022
15:00+6в61494100 2.9 10181057
18:00+6в71493100 0.8 10171021
21:00+6в71393100 1.6 1017974
21 сентября, вт
вт2100:00+6в61493100 0.8 1016907
03:00+6в61494100 4.0 1015853
06:00+6в61295100 2.4 1014760
09:00+6в51195100 2.4 1014670
12:00+7в51195100 1.7 1013700
15:00+8в51095100 2.0 1013592
18:00+8в4996100 0.0 1013479
21:00+7всв4997100 0.1 1013410
22 сентября, ср
ср2200:00+7всв4997100 0.1 1012377
03:00+7всв3897100 0.3 1012353
06:00+6св3797100 0.4 1011376
09:00+6св3797100 3.4 1011416
12:00+6св3596100 0.3 1011382
15:00+7св2494100 0.3 1010428
18:00+8св249698 0.0 1010206
21:00+7всв2599100 1.6 1011267
23 сентября, чт
чт2300:00+8юв269833 0.4 1011209
03:00+5ююв389831 0.4 1011202
06:00+5ююв389644 0.0 1012265
09:00+7ююв3993100 0.1 1013420
12:00+9ююв3582100 0.0 1012675
15:00+9юв2584100 0.2 1011611
18:00+8юв2689100 0.1 1011248
21:00+7ююв2690100 0.1 1011188